This is the latest recevied weather packets stored in our database for station/object PD2BVG. If no packets are shown the sender has not sent any weather packets the latest 1 day(s).
| Time | Temp. | Humidity | Pressure | Rain* | Wind** | Luminosity | Snow |
|---|---|---|---|---|---|---|---|
| 1778077666 | 14.44° C | 70% | 1010.8 hPa | 0 mm | - | 617 W/m² | - |
| 1778077545 | 14.44° C | 70% | 1010.7 hPa | 0 mm | - | 593 W/m² | - |
| 1778077483 | 14.44° C | 71% | 1010.7 hPa | 0 mm | - | 580 W/m² | - |
| 1778077178 | 15° C | 71% | 1010.7 hPa | 0 mm | - | 501 W/m² | - |
| 1778077057 | 15° C | 70% | 1010.8 hPa | 0 mm | - | 645 W/m² | - |
| 1778076756 | 15° C | 71% | 1010.7 hPa | 0 mm | - | 633 W/m² | - |
| 1778076696 | 15° C | 72% | 1010.8 hPa | 0 mm | - | 631 W/m² | - |
| 1778076328 | 15° C | 70% | 1010.9 hPa | 0 mm | - | 531 W/m² | - |
| 1778075965 | 15° C | 71% | 1010.9 hPa | 0 mm | - | 753 W/m² | - |
| 1778075905 | 15° C | 72% | 1010.9 hPa | 0 mm | - | 732 W/m² | - |
| 1778075844 | 15° C | 74% | 1010.9 hPa | 0 mm | - | 698 W/m² | - |
| 1778075784 | 15° C | 75% | 1010.9 hPa | 0 mm | - | 732 W/m² | - |
| 1778075542 | 14.44° C | 75% | 1010.8 hPa | 0 mm | - | 784 W/m² | - |
| 1778075300 | 14.44° C | 76% | 1010.9 hPa | 0 mm | - | 709 W/m² | - |
| 1778075182 | 14.44° C | 75% | 1010.9 hPa | 0 mm | - | 380 W/m² | - |
| 1778075057 | 14.44° C | 72% | 1010.8 hPa | 0 mm | - | 624 W/m² | - |
| 1778074933 | 14.44° C | 73% | 1010.9 hPa | 0 mm | - | 209 W/m² | - |
| 1778074810 | 15° C | 75% | 1010.9 hPa | 0 mm | - | 642 W/m² | - |
| 1778074750 | 15° C | 76% | 1010.8 hPa | 0 mm | - | 635 W/m² | - |
| 1778074690 | 15° C | 76% | 1010.8 hPa | 0 mm | - | 665 W/m² | - |
| 1778074565 | 15° C | 75% | 1010.9 hPa | 0 mm | - | 647 W/m² | - |
| 1778074506 | 15° C | 75% | 1010.9 hPa | 0 mm | - | 222 W/m² | - |
| 1778074384 | 15° C | 77% | 1010.9 hPa | 0 mm | - | 682 W/m² | - |
| 1778074082 | 15° C | 76% | 1011 hPa | 0 mm | - | 712 W/m² | - |
| 1778073841 | 15° C | 75% | 1010.9 hPa | 0 mm | - | 689 W/m² | - |
* Rain latest hour (hover to see other rain measurements)
** Current wind speed in m/s (hover to see current wind gust speed)